TimeCST,TemperatureF,Dew PointF,Humidity,Sea Level PressureIn,VisibilityMPH,Wind Direction,Wind SpeedMPH,Gust SpeedMPH,PrecipitationIn,Events,Conditions,WindDirDegrees,DateUTC
12:15 AM,33.6,30.2,87,29.98,7.0,SE,4.6,-,N/A,,Overcast,140,2013-12-02 06:15:00
12:35 AM,32.7,29.7,88,29.97,7.0,SSE,3.5,-,N/A,,Overcast,160,2013-12-02 06:35:00
12:55 AM,31.5,28.2,88,29.97,5.0,SSE,3.5,-,N/A,,Overcast,160,2013-12-02 06:55:00
1:15 AM,31.5,28.2,88,29.96,7.0,SSE,3.5,-,N/A,,Overcast,150,2013-12-02 07:15:00
1:35 AM,29.1,26.2,89,29.96,5.0,SSE,5.8,-,N/A,,Overcast,160,2013-12-02 07:35:00
1:55 AM,29.3,26.6,90,29.95,5.0,SE,3.5,-,N/A,,Overcast,140,2013-12-02 07:55:00
2:15 AM,27.9,25.2,90,29.95,5.0,SE,4.6,-,N/A,,Scattered Clouds,130,2013-12-02 08:15:00
2:35 AM,26.6,24.1,90,29.94,4.0,Calm,Calm,-,N/A,,Clear,0,2013-12-02 08:35:00
2:55 AM,25.5,23.2,91,29.94,4.0,East,3.5,-,N/A,,Clear,80,2013-12-02 08:55:00
3:15 AM,24.8,23.0,93,29.93,3.0,ENE,4.6,-,N/A,,Clear,70,2013-12-02 09:15:00
3:35 AM,24.4,22.5,92,29.93,3.0,ENE,3.5,-,N/A,,Clear,70,2013-12-02 09:35:00
3:55 AM,24.8,22.8,92,29.93,3.0,East,4.6,-,N/A,,Clear,80,2013-12-02 09:55:00
4:15 AM,23.9,21.9,92,29.92,3.0,East,5.8,-,N/A,,Clear,90,2013-12-02 10:15:00
4:35 AM,24.8,23.0,93,29.92,3.0,East,5.8,-,N/A,,Clear,80,2013-12-02 10:35:00
4:55 AM,24.6,22.6,92,29.92,3.0,East,4.6,-,N/A,,Clear,80,2013-12-02 10:55:00
5:15 AM,24.4,22.6,93,29.91,3.0,East,5.8,-,N/A,,Scattered Clouds,90,2013-12-02 11:15:00
5:35 AM,25.7,23.7,92,29.91,3.0,ENE,5.8,-,N/A,,Mostly Cloudy,70,2013-12-02 11:35:00
5:55 AM,25.3,23.4,92,29.90,3.0,East,4.6,-,N/A,,Scattered Clouds,80,2013-12-02 11:55:00
6:15 AM,24.6,22.6,92,29.90,3.0,Calm,Calm,-,N/A,,Scattered Clouds,0,2013-12-02 12:15:00
6:35 AM,24.4,22.5,92,29.90,3.0,Calm,Calm,-,N/A,,Scattered Clouds,0,2013-12-02 12:35:00
6:55 AM,26.2,24.3,92,29.89,3.0,East,3.5,-,N/A,,Overcast,80,2013-12-02 12:55:00
7:15 AM,27.5,25.7,93,29.90,3.0,Calm,Calm,-,N/A,,Overcast,0,2013-12-02 13:15:00
7:35 AM,28.2,26.2,92,29.90,2.0,Calm,Calm,-,N/A,,Overcast,0,2013-12-02 13:35:00
7:55 AM,28.6,26.8,93,29.90,1.8,Calm,Calm,-,N/A,,Overcast,0,2013-12-02 13:55:00
8:15 AM,29.3,27.3,92,29.90,1.8,Calm,Calm,-,N/A,,Overcast,0,2013-12-02 14:15:00
8:35 AM,31.5,29.7,93,29.90,1.8,Calm,Calm,-,N/A,,Overcast,0,2013-12-02 14:35:00
8:55 AM,33.8,32.0,93,29.90,2.0,Calm,Calm,-,N/A,,Overcast,0,2013-12-02 14:55:00
9:15 AM,34.7,32.7,92,29.89,2.5,ESE,5.8,-,N/A,,Overcast,110,2013-12-02 15:15:00
9:35 AM,36.1,33.8,91,29.89,3.0,ESE,5.8,-,N/A,,Overcast,110,2013-12-02 15:35:00
9:55 AM,37.0,34.2,89,29.88,4.0,ESE,6.9,-,N/A,,Overcast,110,2013-12-02 15:55:00
10:15 AM,38.7,35.1,87,29.86,5.0,ESE,9.2,-,N/A,,Overcast,110,2013-12-02 16:15:00
10:35 AM,38.7,34.2,84,29.86,7.0,SE,8.1,-,N/A,,Scattered Clouds,130,2013-12-02 16:35:00
10:55 AM,38.7,32.9,80,29.86,10.0,ESE,10.4,-,N/A,,Clear,120,2013-12-02 16:55:00
11:15 AM,40.1,32.9,75,29.85,10.0,SE,9.2,-,N/A,,Clear,130,2013-12-02 17:15:00
11:35 AM,41.0,33.8,76,29.84,10.0,ESE,8.1,-,N/A,,Scattered Clouds,120,2013-12-02 17:35:00
11:55 AM,41.2,32.9,72,29.83,7.0,ESE,11.5,-,N/A,,Mostly Cloudy,120,2013-12-02 17:55:00
12:15 PM,41.2,32.7,72,29.82,10.0,SE,10.4,-,N/A,,Scattered Clouds,130,2013-12-02 18:15:00
12:35 PM,41.2,32.2,70,29.82,10.0,SE,9.2,-,N/A,,Mostly Cloudy,130,2013-12-02 18:35:00
12:55 PM,41.2,32.0,70,29.81,10.0,SE,9.2,-,N/A,,Mostly Cloudy,130,2013-12-02 18:55:00
1:15 PM,41.2,31.8,69,29.81,10.0,SE,9.2,-,N/A,,Clear,130,2013-12-02 19:15:00
1:35 PM,41.2,31.8,69,29.80,10.0,SE,8.1,-,N/A,,Clear,130,2013-12-02 19:35:00
1:55 PM,41.2,31.8,69,29.79,10.0,SE,10.4,-,N/A,,Scattered Clouds,130,2013-12-02 19:55:00
2:15 PM,41.2,32.2,70,29.79,10.0,ESE,10.4,-,N/A,,Overcast,110,2013-12-02 20:15:00
2:35 PM,41.2,34.5,77,29.79,7.0,ESE,12.7,-,N/A,,Overcast,120,2013-12-02 20:35:00
2:55 PM,39.2,34.0,82,29.78,7.0,ESE,10.4,-,N/A,,Overcast,120,2013-12-02 20:55:00
3:15 PM,41.2,34.2,76,29.77,10.0,ESE,11.5,-,N/A,,Overcast,110,2013-12-02 21:15:00
3:35 PM,41.2,33.8,75,29.76,10.0,ESE,9.2,-,N/A,,Overcast,110,2013-12-02 21:35:00
3:55 PM,40.1,32.2,73,29.76,10.0,ESE,9.2,-,N/A,,Overcast,120,2013-12-02 21:55:00
4:15 PM,39.6,32.0,74,29.76,10.0,ESE,9.2,-,N/A,,Overcast,110,2013-12-02 22:15:00
4:35 PM,39.6,32.0,74,29.75,10.0,East,10.4,-,N/A,,Overcast,100,2013-12-02 22:35:00
4:55 PM,38.7,31.3,75,29.75,10.0,ESE,10.4,-,N/A,,Overcast,120,2013-12-02 22:55:00
5:15 PM,38.7,31.8,76,29.75,10.0,ESE,8.1,-,N/A,Rain,Light Rain,110,2013-12-02 23:15:00
5:35 PM,37.0,32.5,84,29.76,7.0,SE,6.9,-,N/A,Rain,Light Rain,130,2013-12-02 23:35:00
5:55 PM,36.1,32.2,86,29.76,5.0,SE,10.4,-,N/A,Snow,Light Snow,130,2013-12-02 23:55:00
6:15 PM,36.0,33.1,89,29.75,4.0,ESE,10.4,-,N/A,,Overcast,110,2013-12-03 00:15:00
6:35 PM,36.0,33.3,90,29.75,5.0,East,11.5,-,0.01,Rain,Light Rain,100,2013-12-03 00:35:00
6:55 PM,34.9,32.9,92,29.74,4.0,East,13.8,-,0.02,Rain,Rain,100,2013-12-03 00:55:00
7:15 PM,34.9,32.9,92,29.74,5.0,ESE,12.7,-,N/A,Rain,Light Rain,110,2013-12-03 01:15:00
7:35 PM,34.9,32.9,92,29.74,5.0,East,9.2,-,N/A,,Light Drizzle,100,2013-12-03 01:35:00
7:55 PM,34.9,32.9,92,29.74,5.0,ESE,9.2,-,N/A,,Overcast,110,2013-12-03 01:55:00
8:15 PM,34.9,32.9,92,29.74,5.0,ESE,9.2,-,N/A,,Overcast,110,2013-12-03 02:15:00
8:35 PM,35.1,32.9,92,29.75,5.0,East,9.2,-,N/A,,Overcast,100,2013-12-03 02:35:00
8:55 PM,35.8,33.4,91,29.74,7.0,East,10.4,-,N/A,,Overcast,100,2013-12-03 02:55:00
9:15 PM,36.1,33.8,91,29.74,7.0,ESE,6.9,-,N/A,,Overcast,110,2013-12-03 03:15:00
9:35 PM,36.1,33.8,91,29.74,7.0,East,8.1,-,N/A,,Overcast,100,2013-12-03 03:35:00
9:55 PM,36.1,33.8,91,29.74,5.0,ESE,8.1,-,N/A,,Overcast,110,2013-12-03 03:55:00
10:15 PM,36.1,34.0,92,29.74,4.0,ESE,11.5,-,N/A,,Overcast,120,2013-12-03 04:15:00
10:35 PM,36.1,34.2,93,29.73,2.0,ESE,13.8,-,N/A,,Overcast,110,2013-12-03 04:35:00
10:55 PM,36.1,34.3,93,29.74,1.8,East,6.9,10.4,N/A,,Overcast,90,2013-12-03 04:55:00
11:15 PM,36.1,34.7,94,29.73,2.5,East,6.9,-,N/A,,Overcast,80,2013-12-03 05:15:00
11:35 PM,36.1,34.7,94,29.72,2.0,ESE,10.4,-,N/A,,Overcast,110,2013-12-03 05:35:00
11:55 PM,36.1,34.7,94,29.71,2.0,ESE,10.4,-,N/A,,Overcast,110,2013-12-03 05:55:00